When you browse on this site, cookies collect data to enhance your experience and personalize the content and advertising you see.
Visit our Privacy Policy to learn more. By continuing to use the site, you agree to this use of cookies and data.
  • en Suisse
  • Liste des pays
  • À 7 jours
  • Température de l'eau
  • Carte satellitaire
  • Carte météo
  • Widgets météo
  • user-avatar
    Se connecter

    Météo par heure à Plavni

    Ce jour, 26 Avril, Vendredi

    Heure Température Précipitation Vent Pression Humidité
    00:00 +17°C° 0 mm 2 m/s 759 mmHg 45%
    01:00 +16°C° 0 mm 2 m/s 759 mmHg 47%
    02:00 +16°C° 0 mm 2 m/s 759 mmHg 49%
    03:00 +15°C° 0 mm 2 m/s 759 mmHg 52%
    04:00 +15°C° 0 mm 2 m/s 759 mmHg 55%
    05:00 +14°C° 0 mm 2 m/s 759 mmHg 57%
    06:00 +16°C° 0 mm 2 m/s 759 mmHg 55%
    07:00 +17°C° 0 mm 2 m/s 759 mmHg 53%
    08:00 +19°C° 0 mm 2 m/s 759 mmHg 50%
    09:00 +20°C° 0 mm 2 m/s 759 mmHg 46%
    10:00 +21°C° 0 mm 2 m/s 759 mmHg 42%
    11:00 +24°C° 0 mm 2 m/s 758 mmHg 39%
    12:00 +24°C° 0 mm 2 m/s 758 mmHg 37%
    13:00 +24°C° 0 mm 3 m/s 758 mmHg 36%
    14:00 +25°C° 0 mm 3 m/s 758 mmHg 35%
    15:00 +24°C° 0 mm 3 m/s 757 mmHg 37%
    16:00 +24°C° 0 mm 2 m/s 757 mmHg 40%
    17:00 +23°C° 0 mm 2 m/s 757 mmHg 42%
    18:00 +20°C° 0 mm 2 m/s 757 mmHg 44%
    19:00 +19°C° 0 mm 2 m/s 757 mmHg 45%
    20:00 +17°C° 0 mm 2 m/s 757 mmHg 46%
    21:00 +16°C° 0 mm 2 m/s 757 mmHg 46%
    22:00 +16°C° 0 mm 1 m/s 757 mmHg 46%
    23:00 +15°C° 0 mm 1 m/s 757 mmHg 46%

    Demain, 27 Avril, Samedi

    Heure Température Précipitation Vent Pression Humidité
    00:00 +14°C° 0 mm 1 m/s 757 mmHg 50%
    01:00 +14°C° 0 mm 2 m/s 757 mmHg 54%
    02:00 +13°C° 0 mm 2 m/s 757 mmHg 58%
    03:00 +13°C° 0 mm 1 m/s 756 mmHg 61%
    04:00 +12°C° 0 mm 1 m/s 756 mmHg 65%
    05:00 +12°C° 0 mm 1 m/s 756 mmHg 68%
    06:00 +14°C° 0 mm 2 m/s 756 mmHg 61%
    07:00 +16°C° 0 mm 2 m/s 756 mmHg 54%
    08:00 +17°C° 0 mm 3 m/s 756 mmHg 47%
    09:00 +19°C° 0 mm 3 m/s 755 mmHg 43%
    10:00 +20°C° 0 mm 4 m/s 755 mmHg 39%
    11:00 +22°C° 0 mm 4 m/s 755 mmHg 34%
    12:00 +22°C° 0 mm 4 m/s 754 mmHg 35%
    13:00 +22°C° 0 mm 4 m/s 754 mmHg 36%
    14:00 +23°C° 0 mm 4 m/s 754 mmHg 37%
    15:00 +23°C° 0 mm 4 m/s 753 mmHg 40%
    16:00 +22°C° 0 mm 4 m/s 753 mmHg 43%
    17:00 +22°C° 0 mm 4 m/s 752 mmHg 46%
    18:00 +21°C° 0 mm 3 m/s 752 mmHg 51%
    19:00 +19°C° 0 mm 3 m/s 752 mmHg 55%
    20:00 +18°C° 0 mm 3 m/s 752 mmHg 60%
    21:00 +17°C° 0 mm 3 m/s 752 mmHg 59%
    22:00 +17°C° 0 mm 3 m/s 752 mmHg 59%
    23:00 +17°C° 0 mm 3 m/s 752 mmHg 59%

    Après-demain, 28 Avril, Dimanche

    Heure Température Précipitation Vent Pression Humidité
    00:00 +16°C° 0 mm 3 m/s 752 mmHg 59%
    01:00 +16°C° 0 mm 3 m/s 752 mmHg 58%
    02:00 +14°C° 0 mm 3 m/s 752 mmHg 58%
    03:00 +14°C° 0 mm 3 m/s 751 mmHg 59%
    04:00 +13°C° 0 mm 3 m/s 751 mmHg 60%
    05:00 +12°C° 0 mm 3 m/s 751 mmHg 61%
    06:00 +13°C° 0 mm 4 m/s 751 mmHg 57%
    07:00 +14°C° 0 mm 4 m/s 751 mmHg 53%
    08:00 +16°C° 0 mm 5 m/s 751 mmHg 49%
    09:00 +17°C° 0 mm 5 m/s 751 mmHg 44%
    10:00 +20°C° 0 mm 5 m/s 751 mmHg 40%
    11:00 +21°C° 0 mm 5 m/s 750 mmHg 35%
    12:00 +22°C° 0 mm 5 m/s 750 mmHg 34%
    13:00 +23°C° 0 mm 5 m/s 750 mmHg 33%
    14:00 +23°C° 0 mm 5 m/s 750 mmHg 31%
    15:00 +23°C° 0 mm 4 m/s 749 mmHg 34%
    16:00 +23°C° 0 mm 4 m/s 749 mmHg 37%
    17:00 +24°C° 0 mm 3 m/s 749 mmHg 40%
    18:00 +21°C° 0 mm 3 m/s 749 mmHg 42%
    19:00 +19°C° 0 mm 2 m/s 749 mmHg 45%
    20:00 +17°C° 0 mm 2 m/s 749 mmHg 47%
    21:00 +17°C° 0 mm 2 m/s 750 mmHg 52%
    22:00 +16°C° 0 mm 2 m/s 750 mmHg 56%
    23:00 +15°C° 0 mm 2 m/s 750 mmHg 61%

    29 Avril, Lundi

    Heure Température Précipitation Vent Pression Humidité
    00:00 +15°C° 0 mm 1 m/s 750 mmHg 65%
    01:00 +14°C° 0 mm 1 m/s 750 mmHg 69%
    02:00 +14°C° 0 mm 1 m/s 750 mmHg 73%
    03:00 +13°C° 0 mm 1 m/s 750 mmHg 77%
    04:00 +13°C° 0 mm 1 m/s 750 mmHg 81%
    05:00 +13°C° 0 mm 1 m/s 750 mmHg 85%
    06:00 +14°C° 0 mm 2 m/s 750 mmHg 83%
    07:00 +14°C° 0 mm 4 m/s 751 mmHg 81%
    08:00 +15°C° 0 mm 5 m/s 751 mmHg 80%
    09:00 +14°C° 0 mm 6 m/s 751 mmHg 79%
    10:00 +14°C° 0 mm 6 m/s 751 mmHg 78%
    11:00 +14°C° 0 mm 7 m/s 752 mmHg 77%
    12:00 +14°C° 0 mm 7 m/s 752 mmHg 75%
    13:00 +14°C° 0 mm 7 m/s 751 mmHg 72%
    14:00 +13°C° 0 mm 8 m/s 751 mmHg 70%
    15:00 +12°C° 0 mm 7 m/s 751 mmHg 71%
    16:00 +12°C° 0 mm 7 m/s 751 mmHg 71%
    17:00 +12°C° 0 mm 7 m/s 751 mmHg 72%
    18:00 +11°C° 0.1 mm 7 m/s 751 mmHg 72%
    19:00 +10°C° 0.1 mm 7 m/s 751 mmHg 73%
    20:00 +10°C° 0.1 mm 7 m/s 751 mmHg 73%
    21:00 +9°C° 0.6 mm 6 m/s 751 mmHg 76%
    22:00 +9°C° 0.6 mm 6 m/s 751 mmHg 79%
    23:00 +8°C° 0.6 mm 5 m/s 751 mmHg 81%

    30 Avril, Mardi

    Heure Température Précipitation Vent Pression Humidité
    00:00 +8°C° 0.8 mm 5 m/s 750 mmHg 84%
    01:00 +8°C° 0.8 mm 5 m/s 750 mmHg 86%
    02:00 +8°C° 0.8 mm 5 m/s 750 mmHg 88%
    03:00 +8°C° 0.4 mm 5 m/s 749 mmHg 89%
    04:00 +8°C° 0.4 mm 5 m/s 749 mmHg 90%
    05:00 +8°C° 0.4 mm 5 m/s 749 mmHg 91%
    06:00 +8°C° 0.2 mm 5 m/s 749 mmHg 91%
    07:00 +10°C° 0.2 mm 4 m/s 749 mmHg 91%
    08:00 +10°C° 0.2 mm 4 m/s 748 mmHg 91%
    09:00 +11°C° 0 mm 4 m/s 748 mmHg 88%
    10:00 +12°C° 0 mm 4 m/s 748 mmHg 85%
    11:00 +13°C° 0 mm 3 m/s 748 mmHg 82%
    12:00 +14°C° 0.4 mm 4 m/s 747 mmHg 79%
    13:00 +15°C° 0.4 mm 4 m/s 747 mmHg 76%
    14:00 +17°C° 0.4 mm 4 m/s 747 mmHg 72%
    15:00 +15°C° 0.7 mm 4 m/s 746 mmHg 75%
    16:00 +15°C° 0.7 mm 5 m/s 746 mmHg 78%
    17:00 +14°C° 0.7 mm 5 m/s 746 mmHg 81%
    18:00 +13°C° 0.2 mm 5 m/s 745 mmHg 85%
    19:00 +12°C° 0.2 mm 5 m/s 745 mmHg 88%
    20:00 +12°C° 0.2 mm 4 m/s 745 mmHg 92%
    21:00 +11°C° 0.1 mm 4 m/s 745 mmHg 92%
    22:00 +11°C° 0.1 mm 4 m/s 745 mmHg 93%
    23:00 +10°C° 0.1 mm 3 m/s 745 mmHg 94%

    1 Mai, Mercredi

    Heure Température Précipitation Vent Pression Humidité
    00:00 +10°C° 0.1 mm 4 m/s 745 mmHg 93%
    01:00 +8°C° 0.1 mm 4 m/s 744 mmHg 93%
    02:00 +8°C° 0.1 mm 4 m/s 744 mmHg 93%
    03:00 +9°C° 0.1 mm 3 m/s 744 mmHg 92%
    04:00 +8°C° 0.1 mm 3 m/s 744 mmHg 92%
    05:00 +8°C° 0.1 mm 3 m/s 744 mmHg 92%
    06:00 +8°C° 0.2 mm 3 m/s 744 mmHg 90%
    07:00 +9°C° 0.2 mm 3 m/s 744 mmHg 88%
    08:00 +8°C° 0.2 mm 4 m/s 744 mmHg 86%
    09:00 +8°C° 0.2 mm 4 m/s 744 mmHg 84%
    10:00 +10°C° 0.2 mm 4 m/s 744 mmHg 82%
    11:00 +10°C° 0.2 mm 4 m/s 744 mmHg 79%
    12:00 +9°C° 0.4 mm 5 m/s 744 mmHg 80%
    13:00 +9°C° 0.4 mm 5 m/s 744 mmHg 80%
    14:00 +8°C° 0.4 mm 5 m/s 744 mmHg 80%
    15:00 +8°C° 0.2 mm 5 m/s 745 mmHg 78%
    16:00 +9°C° 0.2 mm 6 m/s 745 mmHg 76%
    17:00 +9°C° 0.2 mm 6 m/s 745 mmHg 74%
    18:00 +8°C° 0 mm 5 m/s 746 mmHg 78%
    19:00 +7°C° 0 mm 4 m/s 746 mmHg 81%
    20:00 +7°C° 0 mm 3 m/s 746 mmHg 85%
    21:00 +5°C° 0 mm 3 m/s 747 mmHg 86%
    22:00 +5°C° 0 mm 3 m/s 747 mmHg 87%
    23:00 +5°C° 0 mm 3 m/s 747 mmHg 88%
    Voir plus